Wetterdaten: Montag, 25.01.2016
Datum Zeit Temp. A. Feuchte A. Luftdruck Regen Wind Richtung Richtung Sonnenschein ET UV Solar Taupunkt Windchill Windben Empfang
25.01.2016 00:00 1,6 C 94 % 1032,4 hPa 0,0 l/m 0,0 km/h (0 Bft) S-SO 162 0 min 0,000 mm 0,0 UV-I 0 W/m 0,7 C 1,6 C 0,0 km/h (0 Bft) 97,25 %
25.01.2016 00:05 1,5 C 95 % 1032,3 hPa 0,0 l/m 1,6 km/h (1 Bft) NO 49 0 min 0,000 mm 0,0 UV-I 0 W/m 0,8 C 1,5 C 4,8 km/h (1 Bft) 100,00 %
25.01.2016 00:10 1,3 C 95 % 1032,4 hPa 0,0 l/m 1,6 km/h (1 Bft) NO 49 0 min 0,000 mm 0,0 UV-I 0 W/m 0,6 C 1,3 C 4,8 km/h (1 Bft) 100,00 %
25.01.2016 00:15 1,2 C 95 % 1032,3 hPa 0,0 l/m 0,1 km/h (0 Bft) NO 41 0 min 0,000 mm 0,0 UV-I 0 W/m 0,5 C 1,2 C 1,6 km/h (1 Bft) 100,00 %
25.01.2016 00:20 1,2 C 95 % 1032,5 hPa 0,0 l/m 0,0 km/h (0 Bft) NO 41 0 min 0,000 mm 0,0 UV-I 0 W/m 0,5 C 1,2 C 0,0 km/h (0 Bft) 100,00 %
25.01.2016 00:25 1,2 C 96 % 1032,5 hPa 0,0 l/m 0,0 km/h (0 Bft) NO 41 0 min 0,000 mm 0,0 UV-I 0 W/m 0,6 C 1,2 C 0,0 km/h (0 Bft) 100,00 %
25.01.2016 00:30 1,2 C 96 % 1032,5 hPa 0,0 l/m 0,0 km/h (0 Bft) NO 41 0 min 0,000 mm 0,0 UV-I 0 W/m 0,6 C 1,2 C 0,0 km/h (0 Bft) 100,00 %
25.01.2016 00:35 1,3 C 96 % 1032,3 hPa 0,0 l/m 0,3 km/h (0 Bft) O 96 0 min 0,000 mm 0,0 UV-I 0 W/m 0,7 C 1,3 C 1,6 km/h (1 Bft) 100,00 %
25.01.2016 00:40 1,3 C 95 % 1032,4 hPa 0,0 l/m 0,6 km/h (0 Bft) O 96 0 min 0,000 mm 0,0 UV-I 0 W/m 0,6 C 1,3 C 1,6 km/h (1 Bft) 99,17 %
25.01.2016 00:45 1,3 C 95 % 1032,3 hPa 0,0 l/m 0,0 km/h (0 Bft) O 96 0 min 0,000 mm 0,0 UV-I 0 W/m 0,6 C 1,3 C 0,0 km/h (0 Bft) 99,17 %
25.01.2016 00:50 1,4 C 95 % 1032,2 hPa 0,0 l/m 0,1 km/h (0 Bft) O 96 0 min 0,000 mm 0,0 UV-I 0 W/m 0,7 C 1,4 C 1,6 km/h (1 Bft) 99,13 %
25.01.2016 00:55 1,3 C 95 % 1032,2 hPa 0,0 l/m 0,7 km/h (0 Bft) O 96 0 min 0,000 mm 0,0 UV-I 0 W/m 0,6 C 1,3 C 1,6 km/h (1 Bft) 96,77 %
25.01.2016 01:00 1,3 C 96 % 1032,3 hPa 0,0 l/m 1,1 km/h (1 Bft) O 96 0 min 0,000 mm 0,0 UV-I 0 W/m 0,7 C 1,3 C 3,2 km/h (1 Bft) 97,30 %
25.01.2016 01:05 1,3 C 95 % 1032,2 hPa 0,0 l/m 1,1 km/h (1 Bft) O 96 0 min 0,000 mm 0,0 UV-I 0 W/m 0,6 C 1,3 C 3,2 km/h (1 Bft) 96,43 %
25.01.2016 01:10 1,3 C 95 % 1032,2 hPa 0,0 l/m 1,9 km/h (1 Bft) O 96 0 min 0,000 mm 0,0 UV-I 0 W/m 0,6 C 1,3 C 3,2 km/h (1 Bft) 95,87 %
25.01.2016 01:15 1,3 C 96 % 1032,0 hPa 0,0 l/m 0,9 km/h (0 Bft) O 96 0 min 0,000 mm 0,0 UV-I 0 W/m 0,7 C 1,3 C 3,2 km/h (1 Bft) 95,73 %
25.01.2016 01:20 1,4 C 96 % 1032,0 hPa 0,0 l/m 0,1 km/h (0 Bft) O 96 0 min 0,000 mm 0,0 UV-I 0 W/m 0,8 C 1,4 C 1,6 km/h (1 Bft) 97,52 %
25.01.2016 01:25 1,6 C 96 % 1031,9 hPa 0,0 l/m 0,3 km/h (0 Bft) O 96 0 min 0,000 mm 0,0 UV-I 0 W/m 1,0 C 1,6 C 1,6 km/h (1 Bft) 95,73 %
25.01.2016 01:30 1,7 C 95 % 1031,9 hPa 0,0 l/m 2,2 km/h (1 Bft) O-SO 105 0 min 0,000 mm 0,0 UV-I 0 W/m 1,0 C 1,7 C 3,2 km/h (1 Bft) 98,26 %
25.01.2016 01:35 1,7 C 95 % 1031,7 hPa 0,0 l/m 1,2 km/h (1 Bft) SO 146 0 min 0,000 mm 0,0 UV-I 0 W/m 1,0 C 1,7 C 3,2 km/h (1 Bft) 99,13 %
25.01.2016 01:40 1,6 C 95 % 1031,8 hPa 0,0 l/m 2,0 km/h (1 Bft) S-SO 149 0 min 0,000 mm 0,0 UV-I 0 W/m 0,9 C 1,6 C 4,8 km/h (1 Bft) 98,33 %
25.01.2016 01:45 1,7 C 95 % 1031,8 hPa 0,0 l/m 0,5 km/h (0 Bft) S-SO 149 0 min 0,000 mm 0,0 UV-I 0 W/m 1,0 C 1,7 C 3,2 km/h (1 Bft) 97,46 %
25.01.2016 01:50 1,7 C 94 % 1031,8 hPa 0,0 l/m 0,7 km/h (0 Bft) S-SO 149 0 min 0,000 mm 0,0 UV-I 0 W/m 0,8 C 1,7 C 3,2 km/h (1 Bft) 99,11 %
25.01.2016 01:55 1,6 C 95 % 1031,5 hPa 0,0 l/m 1,4 km/h (1 Bft) S-SO 148 0 min 0,000 mm 0,0 UV-I 0 W/m 0,9 C 1,6 C 3,2 km/h (1 Bft) 100,00 %
25.01.2016 02:00 1,6 C 95 % 1031,6 hPa 0,0 l/m 1,1 km/h (1 Bft) S-SO 148 0 min 0,000 mm 0,0 UV-I 0 W/m 0,9 C 1,6 C 3,2 km/h (1 Bft) 99,21 %
25.01.2016 02:05 1,4 C 94 % 1031,7 hPa 0,0 l/m 2,0 km/h (1 Bft) W-NW 303 0 min 0,000 mm 0,0 UV-I 0 W/m 0,5 C 1,4 C 4,8 km/h (1 Bft) 100,00 %
25.01.2016 02:10 1,2 C 95 % 1031,7 hPa 0,0 l/m 2,8 km/h (1 Bft) S-SW 212 0 min 0,000 mm 0,0 UV-I 0 W/m 0,5 C 1,2 C 4,8 km/h (1 Bft) 99,22 %
25.01.2016 02:15 1,2 C 96 % 1031,7 hPa 0,0 l/m 3,9 km/h (1 Bft) SW 221 0 min 0,000 mm 0,0 UV-I 0 W/m 0,6 C 1,2 C 4,8 km/h (1 Bft) 99,13 %
25.01.2016 02:20 1,2 C 96 % 1031,6 hPa 0,0 l/m 4,4 km/h (1 Bft) S-SW 199 0 min 0,000 mm 0,0 UV-I 0 W/m 0,6 C 1,2 C 6,4 km/h (2 Bft) 99,12 %
25.01.2016 02:25 1,3 C 96 % 1031,6 hPa 0,0 l/m 4,7 km/h (1 Bft) S 189 0 min 0,000 mm 0,0 UV-I 0 W/m 0,7 C 1,3 C 6,4 km/h (2 Bft) 98,35 %
25.01.2016 02:30 1,3 C 96 % 1031,4 hPa 0,0 l/m 4,1 km/h (1 Bft) S 184 0 min 0,000 mm 0,0 UV-I 0 W/m 0,7 C 1,3 C 6,4 km/h (2 Bft) 100,00 %
25.01.2016 02:35 1,3 C 96 % 1031,4 hPa 0,0 l/m 5,2 km/h (1 Bft) S-SW 204 0 min 0,000 mm 0,0 UV-I 0 W/m 0,7 C 1,3 C 8,0 km/h (2 Bft) 98,29 %
25.01.2016 02:40 1,3 C 96 % 1031,5 hPa 0,0 l/m 3,1 km/h (1 Bft) S-SW 202 0 min 0,000 mm 0,0 UV-I 0 W/m 0,7 C 1,3 C 6,4 km/h (2 Bft) 100,00 %
25.01.2016 02:45 1,3 C 96 % 1031,3 hPa 0,0 l/m 2,0 km/h (1 Bft) S-SW 207 0 min 0,000 mm 0,0 UV-I 0 W/m 0,7 C 1,3 C 4,8 km/h (1 Bft) 100,00 %
25.01.2016 02:50 1,3 C 96 % 1031,3 hPa 0,0 l/m 3,5 km/h (1 Bft) S-SW 207 0 min 0,000 mm 0,0 UV-I 0 W/m 0,7 C 1,3 C 6,4 km/h (2 Bft) 99,19 %
25.01.2016 02:55 1,3 C 96 % 1031,3 hPa 0,0 l/m 3,9 km/h (1 Bft) SW 215 0 min 0,000 mm 0,0 UV-I 0 W/m 0,7 C 1,3 C 6,4 km/h (2 Bft) 100,00 %
25.01.2016 03:00 1,3 C 96 % 1031,0 hPa 0,2 l/m 5,5 km/h (1 Bft) S-SW 201 0 min 0,000 mm 0,0 UV-I 0 W/m 0,7 C 1,3 C 9,7 km/h (2 Bft) 98,41 %
25.01.2016 03:05 1,3 C 96 % 1031,0 hPa 0,0 l/m 4,3 km/h (1 Bft) S-SW 195 0 min 0,000 mm 0,0 UV-I 0 W/m 0,7 C 1,3 C 6,4 km/h (2 Bft) 95,54 %
25.01.2016 03:10 1,4 C 96 % 1030,9 hPa 0,0 l/m 3,8 km/h (1 Bft) S 176 0 min 0,000 mm 0,0 UV-I 0 W/m 0,8 C 1,4 C 6,4 km/h (2 Bft) 95,65 %
25.01.2016 03:15 1,4 C 96 % 1031,0 hPa 0,0 l/m 3,2 km/h (1 Bft) S-SW 194 0 min 0,000 mm 0,0 UV-I 0 W/m 0,8 C 1,4 C 8,0 km/h (2 Bft) 96,83 %
25.01.2016 03:20 1,4 C 96 % 1031,1 hPa 0,0 l/m 1,9 km/h (1 Bft) W-NW 296 0 min 0,000 mm 0,0 UV-I 0 W/m 0,8 C 1,4 C 4,8 km/h (1 Bft) 94,50 %
25.01.2016 03:25 1,2 C 96 % 1031,0 hPa 0,0 l/m 1,1 km/h (1 Bft) N 5 0 min 0,000 mm 0,0 UV-I 0 W/m 0,6 C 1,2 C 4,8 km/h (1 Bft) 98,21 %
25.01.2016 03:30 1,2 C 96 % 1030,9 hPa 0,0 l/m 2,6 km/h (1 Bft) N 5 0 min 0,000 mm 0,0 UV-I 0 W/m 0,6 C 1,2 C 4,8 km/h (1 Bft) 96,03 %
25.01.2016 03:35 1,2 C 96 % 1031,2 hPa 0,0 l/m 0,2 km/h (0 Bft) N 5 0 min 0,000 mm 0,0 UV-I 0 W/m 0,6 C 1,2 C 1,6 km/h (1 Bft) 97,52 %
25.01.2016 03:40 1,2 C 96 % 1031,2 hPa 0,2 l/m 1,0 km/h (0 Bft) N 9 0 min 0,000 mm 0,0 UV-I 0 W/m 0,6 C 1,2 C 3,2 km/h (1 Bft) 99,10 %
25.01.2016 03:45 1,2 C 97 % 1031,1 hPa 0,0 l/m 1,5 km/h (1 Bft) N 11 0 min 0,000 mm 0,0 UV-I 0 W/m 0,8 C 1,2 C 3,2 km/h (1 Bft) 99,13 %
25.01.2016 03:50 1,2 C 97 % 1031,0 hPa 0,0 l/m 0,5 km/h (0 Bft) N 11 0 min 0,000 mm 0,0 UV-I 0 W/m 0,8 C 1,2 C 3,2 km/h (1 Bft) 98,31 %
25.01.2016 03:55 1,2 C 97 % 1030,8 hPa 0,2 l/m 0,1 km/h (0 Bft) N 11 0 min 0,000 mm 0,0 UV-I 0 W/m 0,8 C 1,2 C 1,6 km/h (1 Bft) 97,56 %
25.01.2016 04:00 1,2 C 97 % 1030,8 hPa 0,2 l/m 0,0 km/h (0 Bft) N 11 0 min 0,000 mm 0,0 UV-I 0 W/m 0,8 C 1,2 C 1,6 km/h (1 Bft) 100,00 %
25.01.2016 04:05 1,2 C 97 % 1030,9 hPa 0,0 l/m 0,0 km/h (0 Bft) N 11 0 min 0,000 mm 0,0 UV-I 0 W/m 0,8 C 1,2 C 0,0 km/h (0 Bft) 100,00 %
25.01.2016 04:10 1,2 C 97 % 1030,9 hPa 0,0 l/m 1,0 km/h (0 Bft) N 11 0 min 0,000 mm 0,0 UV-I 0 W/m 0,8 C 1,2 C 3,2 km/h (1 Bft) 100,00 %
25.01.2016 04:15 1,2 C 97 % 1031,0 hPa 0,2 l/m 1,4 km/h (1 Bft) N 11 0 min 0,000 mm 0,0 UV-I 0 W/m 0,8 C 1,2 C 3,2 km/h (1 Bft) 99,13 %
25.01.2016 04:20 1,2 C 97 % 1031,0 hPa 0,2 l/m 0,2 km/h (0 Bft) N 355 0 min 0,000 mm 0,0 UV-I 0 W/m 0,8 C 1,2 C 1,6 km/h (1 Bft) 100,00 %
25.01.2016 04:25 1,1 C 97 % 1031,0 hPa 0,0 l/m 0,3 km/h (0 Bft) N 355 0 min 0,000 mm 0,0 UV-I 0 W/m 0,7 C 1,1 C 3,2 km/h (1 Bft) 98,35 %
25.01.2016 04:30 1,2 C 97 % 1031,0 hPa 0,2 l/m 2,4 km/h (1 Bft) N 355 0 min 0,000 mm 0,0 UV-I 0 W/m 0,8 C 1,2 C 4,8 km/h (1 Bft) 99,13 %
25.01.2016 04:35 1,1 C 97 % 1030,9 hPa 0,2 l/m 2,4 km/h (1 Bft) N 355 0 min 0,000 mm 0,0 UV-I 0 W/m 0,7 C 1,1 C 4,8 km/h (1 Bft) 100,00 %
25.01.2016 04:40 1,1 C 97 % 1030,8 hPa 0,2 l/m 2,9 km/h (1 Bft) S-SW 196 0 min 0,000 mm 0,0 UV-I 0 W/m 0,7 C 1,1 C 4,8 km/h (1 Bft) 98,26 %
25.01.2016 04:45 1,2 C 97 % 1030,8 hPa 0,0 l/m 2,8 km/h (1 Bft) S-SW 205 0 min 0,000 mm 0,0 UV-I 0 W/m 0,8 C 1,2 C 4,8 km/h (1 Bft) 99,13 %
25.01.2016 04:50 1,2 C 97 % 1030,7 hPa 0,2 l/m 3,1 km/h (1 Bft) S-SW 205 0 min 0,000 mm 0,0 UV-I 0 W/m 0,8 C 1,2 C 4,8 km/h (1 Bft) 100,00 %
25.01.2016 04:55 1,3 C 97 % 1030,8 hPa 0,2 l/m 3,3 km/h (1 Bft) S-SW 200 0 min 0,000 mm 0,0 UV-I 0 W/m 0,9 C 1,3 C 4,8 km/h (1 Bft) 98,26 %
25.01.2016 05:00 1,3 C 97 % 1030,7 hPa 0,2 l/m 2,8 km/h (1 Bft) S-SW 200 0 min 0,000 mm 0,0 UV-I 0 W/m 0,9 C 1,3 C 4,8 km/h (1 Bft) 99,15 %
25.01.2016 05:05 1,3 C 97 % 1030,7 hPa 0,2 l/m 3,5 km/h (1 Bft) S-SW 200 0 min 0,000 mm 0,0 UV-I 0 W/m 0,9 C 1,3 C 6,4 km/h (2 Bft) 100,00 %
25.01.2016 05:10 1,2 C 97 % 1030,8 hPa 0,2 l/m 3,6 km/h (1 Bft) S-SW 200 0 min 0,000 mm 0,0 UV-I 0 W/m 0,8 C 1,2 C 4,8 km/h (1 Bft) 99,11 %
25.01.2016 05:15 1,3 C 97 % 1030,8 hPa 0,2 l/m 3,0 km/h (1 Bft) S-SW 201 0 min 0,000 mm 0,0 UV-I 0 W/m 0,9 C 1,3 C 4,8 km/h (1 Bft) 96,49 %
25.01.2016 05:20 1,2 C 97 % 1030,7 hPa 0,2 l/m 4,9 km/h (1 Bft) S-SW 211 0 min 0,000 mm 0,0 UV-I 0 W/m 0,8 C 1,2 C 8,0 km/h (2 Bft) 97,39 %
25.01.2016 05:25 1,2 C 97 % 1030,6 hPa 0,2 l/m 4,8 km/h (1 Bft) SW 227 0 min 0,000 mm 0,0 UV-I 0 W/m 0,8 C 1,2 C 6,4 km/h (2 Bft) 98,35 %
25.01.2016 05:30 1,3 C 97 % 1030,7 hPa 0,0 l/m 4,3 km/h (1 Bft) W-SW 248 0 min 0,000 mm 0,0 UV-I 0 W/m 0,9 C 1,3 C 6,4 km/h (2 Bft) 96,67 %
25.01.2016 05:35 1,3 C 97 % 1030,5 hPa 0,0 l/m 4,2 km/h (1 Bft) SW 236 0 min 0,000 mm 0,0 UV-I 0 W/m 0,9 C 1,3 C 6,4 km/h (2 Bft) 97,52 %
25.01.2016 05:40 1,2 C 97 % 1030,6 hPa 0,2 l/m 3,7 km/h (1 Bft) SW 225 0 min 0,000 mm 0,0 UV-I 0 W/m 0,8 C 1,2 C 6,4 km/h (2 Bft) 94,74 %
25.01.2016 05:45 1,3 C 97 % 1030,6 hPa 0,0 l/m 3,4 km/h (1 Bft) SW 225 0 min 0,000 mm 0,0 UV-I 0 W/m 0,9 C 1,3 C 4,8 km/h (1 Bft) 96,43 %
25.01.2016 05:50 1,3 C 97 % 1030,7 hPa 0,0 l/m 2,7 km/h (1 Bft) SW 226 0 min 0,000 mm 0,0 UV-I 0 W/m 0,9 C 1,3 C 4,8 km/h (1 Bft) 98,39 %
25.01.2016 05:55 1,3 C 97 % 1030,5 hPa 0,2 l/m 3,8 km/h (1 Bft) S-SW 205 0 min 0,000 mm 0,0 UV-I 0 W/m 0,9 C 1,3 C 6,4 km/h (2 Bft) 100,00 %
25.01.2016 06:00 1,3 C 97 % 1030,5 hPa 0,0 l/m 4,3 km/h (1 Bft) S-SW 207 0 min 0,000 mm 0,0 UV-I 0 W/m 0,9 C 1,3 C 6,4 km/h (2 Bft) 98,26 %
25.01.2016 06:05 1,4 C 97 % 1030,7 hPa 0,2 l/m 4,3 km/h (1 Bft) SW 225 0 min 0,000 mm 0,0 UV-I 0 W/m 1,0 C 1,4 C 6,4 km/h (2 Bft) 99,11 %
25.01.2016 06:10 1,4 C 97 % 1030,7 hPa 0,2 l/m 3,6 km/h (1 Bft) SW 217 0 min 0,000 mm 0,0 UV-I 0 W/m 1,0 C 1,4 C 6,4 km/h (2 Bft) 98,41 %
25.01.2016 06:15 1,4 C 97 % 1030,7 hPa 0,2 l/m 2,7 km/h (1 Bft) SW 224 0 min 0,000 mm 0,0 UV-I 0 W/m 1,0 C 1,4 C 4,8 km/h (1 Bft) 98,31 %
25.01.2016 06:20 1,4 C 97 % 1030,6 hPa 0,2 l/m 2,9 km/h (1 Bft) SW 224 0 min 0,000 mm 0,0 UV-I 0 W/m 1,0 C 1,4 C 4,8 km/h (1 Bft) 100,00 %
25.01.2016 06:25 1,4 C 97 % 1030,5 hPa 0,0 l/m 4,6 km/h (1 Bft) S-SW 212 0 min 0,000 mm 0,0 UV-I 0 W/m 1,0 C 1,4 C 8,0 km/h (2 Bft) 98,21 %
25.01.2016 06:30 1,4 C 97 % 1030,4 hPa 0,2 l/m 3,9 km/h (1 Bft) S-SW 209 0 min 0,000 mm 0,0 UV-I 0 W/m 1,0 C 1,4 C 6,4 km/h (2 Bft) 100,00 %
25.01.2016 06:35 1,4 C 98 % 1030,4 hPa 0,0 l/m 3,7 km/h (1 Bft) SW 234 0 min 0,000 mm 0,0 UV-I 0 W/m 1,1 C 1,4 C 6,4 km/h (2 Bft) 100,00 %
25.01.2016 06:40 1,5 C 98 % 1030,4 hPa 0,0 l/m 2,2 km/h (1 Bft) SW 234 0 min 0,000 mm 0,0 UV-I 0 W/m 1,2 C 1,5 C 4,8 km/h (1 Bft) 98,31 %
25.01.2016 06:45 1,5 C 98 % 1030,5 hPa 0,2 l/m 1,6 km/h (1 Bft) SW 234 0 min 0,000 mm 0,0 UV-I 0 W/m 1,2 C 1,5 C 4,8 km/h (1 Bft) 98,17 %
25.01.2016 06:50 1,5 C 97 % 1030,4 hPa 0,0 l/m 1,4 km/h (1 Bft) SW 234 0 min 0,000 mm 0,0 UV-I 0 W/m 1,1 C 1,5 C 3,2 km/h (1 Bft) 98,37 %
25.01.2016 06:55 1,5 C 97 % 1030,3 hPa 0,0 l/m 1,7 km/h (1 Bft) SW 234 0 min 0,000 mm 0,0 UV-I 0 W/m 1,1 C 1,5 C 3,2 km/h (1 Bft) 100,00 %
25.01.2016 07:00 1,5 C 98 % 1030,3 hPa 0,0 l/m 2,1 km/h (1 Bft) SW 234 0 min 0,000 mm 0,0 UV-I 0 W/m 1,2 C 1,5 C 3,2 km/h (1 Bft) 99,15 %
25.01.2016 07:05 1,6 C 98 % 1030,4 hPa 0,0 l/m 2,3 km/h (1 Bft) SW 234 0 min 0,000 mm 0,0 UV-I 0 W/m 1,3 C 1,6 C 3,2 km/h (1 Bft) 97,46 %
25.01.2016 07:10 1,5 C 98 % 1030,4 hPa 0,0 l/m 2,3 km/h (1 Bft) SW 236 0 min 0,000 mm 0,0 UV-I 0 W/m 1,2 C 1,5 C 4,8 km/h (1 Bft) 100,00 %
25.01.2016 07:15 1,5 C 97 % 1030,2 hPa 0,0 l/m 2,8 km/h (1 Bft) W 270 0 min 0,000 mm 0,0 UV-I 0 W/m 1,1 C 1,5 C 4,8 km/h (1 Bft) 98,20 %
25.01.2016 07:20 1,7 C 98 % 1030,3 hPa 0,0 l/m 5,8 km/h (2 Bft) W 267 0 min 0,000 mm 0,0 UV-I 0 W/m 1,4 C 1,7 C 11,3 km/h (2 Bft) 95,54 %
25.01.2016 07:25 1,9 C 98 % 1030,5 hPa 0,0 l/m 4,9 km/h (1 Bft) W-NW 298 0 min 0,000 mm 0,0 UV-I 0 W/m 1,6 C 1,9 C 9,7 km/h (2 Bft) 98,26 %
25.01.2016 07:30 2,1 C 98 % 1030,3 hPa 0,0 l/m 8,2 km/h (2 Bft) W 270 0 min 0,000 mm 0,0 UV-I 0 W/m 1,8 C 0,4 C 16,1 km/h (3 Bft) 96,75 %
25.01.2016 07:35 2,3 C 98 % 1030,4 hPa 0,0 l/m 9,7 km/h (2 Bft) W 278 0 min 0,000 mm 0,0 UV-I 0 W/m 2,0 C -0,7 C 16,1 km/h (3 Bft) 97,46 %
25.01.2016 07:40 2,4 C 98 % 1030,4 hPa 0,0 l/m 7,9 km/h (2 Bft) W 275 0 min 0,000 mm 0,0 UV-I 0 W/m 2,1 C 1,0 C 16,1 km/h (3 Bft) 97,50 %
25.01.2016 07:45 2,6 C 98 % 1030,6 hPa 0,0 l/m 7,7 km/h (2 Bft) W-NW 286 0 min 0,000 mm 0,0 UV-I 0 W/m 2,3 C 1,4 C 14,5 km/h (3 Bft) 95,65 %
25.01.2016 07:50 2,6 C 98 % 1030,6 hPa 0,0 l/m 8,5 km/h (2 Bft) W 266 0 min 0,000 mm 0,0 UV-I 0 W/m 2,3 C 0,6 C 16,1 km/h (3 Bft) 97,39 %
25.01.2016 07:55 2,7 C 98 % 1030,7 hPa 0,0 l/m 7,2 km/h (2 Bft) W 264 0 min 0,000 mm 0,0 UV-I 0 W/m 2,4 C 1,9 C 12,9 km/h (3 Bft) 97,44 %
25.01.2016 08:00 2,7 C 98 % 1030,7 hPa 0,0 l/m 7,5 km/h (2 Bft) W-NW 289 0 min 0,000 mm 0,0 UV-I 0 W/m 2,4 C 1,6 C 14,5 km/h (3 Bft) 99,19 %
25.01.2016 08:05 2,8 C 98 % 1030,8 hPa 0,0 l/m 6,9 km/h (2 Bft) W-SW 256 0 min 0,000 mm 0,0 UV-I 0 W/m 2,5 C 2,3 C 16,1 km/h (3 Bft) 97,44 %
25.01.2016 08:10 2,9 C 98 % 1030,8 hPa 0,0 l/m 8,6 km/h (2 Bft) W-NW 288 0 min 0,000 mm 0,0 UV-I 0 W/m 2,6 C 0,9 C 16,1 km/h (3 Bft) 99,08 %
25.01.2016 08:15 2,9 C 98 % 1030,8 hPa 0,0 l/m 9,0 km/h (2 Bft) W 274 0 min 0,000 mm 0,0 UV-I 0 W/m 2,6 C 0,5 C 14,5 km/h (3 Bft) 99,19 %
25.01.2016 08:20 3,0 C 98 % 1030,8 hPa 0,0 l/m 9,6 km/h (2 Bft) W 262 0 min 0,000 mm 0,0 UV-I 4 W/m 2,7 C 0,2 C 14,5 km/h (3 Bft) 100,00 %
25.01.2016 08:25 3,0 C 98 % 1030,8 hPa 0,0 l/m 10,2 km/h (2 Bft) W 259 0 min 0,000 mm 0,0 UV-I 6 W/m 2,7 C -0,3 C 16,1 km/h (3 Bft) 98,21 %
25.01.2016 08:30 3,0 C 98 % 1030,9 hPa 0,0 l/m 9,1 km/h (2 Bft) W-SW 254 0 min 0,000 mm 0,0 UV-I 7 W/m 2,7 C 0,6 C 14,5 km/h (3 Bft) 100,00 %
25.01.2016 08:35 2,9 C 98 % 1031,0 hPa 0,0 l/m 9,1 km/h (2 Bft) W-SW 252 0 min 0,000 mm 0,0 UV-I 7 W/m 2,6 C 0,5 C 12,9 km/h (3 Bft) 99,05 %
25.01.2016 08:40 2,9 C 98 % 1031,0 hPa 0,0 l/m 5,5 km/h (1 Bft) W 266 0 min 0,000 mm 0,0 UV-I 9 W/m 2,6 C 2,9 C 9,7 km/h (2 Bft) 100,00 %
25.01.2016 08:45 2,8 C 98 % 1031,0 hPa 0,0 l/m 6,3 km/h (2 Bft) W-SW 254 0 min 0,000 mm 0,0 UV-I 10 W/m 2,5 C 2,8 C 11,3 km/h (2 Bft) 100,00 %
25.01.2016 08:50 2,8 C 98 % 1031,0 hPa 0,0 l/m 5,7 km/h (1 Bft) W 263 0 min 0,000 mm 0,0 UV-I 10 W/m 2,5 C 2,8 C 9,7 km/h (2 Bft) 100,00 %
25.01.2016 08:55 2,9 C 98 % 1031,0 hPa 0,0 l/m 6,9 km/h (2 Bft) W-SW 255 0 min 0,000 mm 0,0 UV-I 8 W/m 2,6 C 2,4 C 9,7 km/h (2 Bft) 98,26 %
25.01.2016 09:00 2,9 C 98 % 1030,9 hPa 0,0 l/m 6,1 km/h (2 Bft) W-SW 246 0 min 0,000 mm 0,0 UV-I 10 W/m 2,6 C 2,9 C 11,3 km/h (2 Bft) 100,00 %
25.01.2016 09:05 3,0 C 98 % 1030,8 hPa 0,0 l/m 7,0 km/h (2 Bft) W 261 0 min 0,000 mm 0,0 UV-I 13 W/m 2,7 C 2,4 C 11,3 km/h (2 Bft) 99,13 %
25.01.2016 09:10 3,1 C 98 % 1031,0 hPa 0,0 l/m 6,7 km/h (2 Bft) W 267 0 min 0,000 mm 0,0 UV-I 15 W/m 2,8 C 2,8 C 11,3 km/h (2 Bft) 100,00 %
25.01.2016 09:15 3,1 C 98 % 1031,0 hPa 0,0 l/m 4,6 km/h (1 Bft) W 261 0 min 0,000 mm 0,0 UV-I 15 W/m 2,8 C 3,1 C 6,4 km/h (2 Bft) 99,15 %
25.01.2016 09:20 3,1 C 98 % 1031,0 hPa 0,0 l/m 5,5 km/h (1 Bft) W 277 0 min 0,000 mm 0,0 UV-I 16 W/m 2,8 C 3,1 C 9,7 km/h (2 Bft) 100,00 %
25.01.2016 09:25 3,2 C 98 % 1031,0 hPa 0,0 l/m 4,7 km/h (1 Bft) W-NW 284 0 min 0,000 mm 0,0 UV-I 18 W/m 2,9 C 3,2 C 6,4 km/h (2 Bft) 98,21 %
25.01.2016 09:30 3,2 C 98 % 1031,0 hPa 0,0 l/m 3,7 km/h (1 Bft) W 277 0 min 0,000 mm 0,0 UV-I 17 W/m 2,9 C 3,2 C 6,4 km/h (2 Bft) 96,72 %
25.01.2016 09:35 3,3 C 98 % 1031,1 hPa 0,0 l/m 4,4 km/h (1 Bft) W 273 0 min 0,000 mm 0,0 UV-I 19 W/m 3,0 C 3,3 C 9,7 km/h (2 Bft) 95,00 %
25.01.2016 09:40 3,3 C 98 % 1031,2 hPa 0,0 l/m 3,2 km/h (1 Bft) W-NW 286 0 min 0,000 mm 0,0 UV-I 19 W/m 3,0 C 3,3 C 6,4 km/h (2 Bft) 96,97 %
25.01.2016 09:45 3,2 C 98 % 1031,3 hPa 0,0 l/m 1,1 km/h (1 Bft) W-NW 284 0 min 0,000 mm 0,0 UV-I 17 W/m 2,9 C 3,2 C 3,2 km/h (1 Bft) 98,21 %
25.01.2016 09:50 3,1 C 98 % 1031,4 hPa 0,0 l/m 0,6 km/h (0 Bft) W-NW 297 0 min 0,000 mm 0,0 UV-I 14 W/m 2,8 C 3,1 C 4,8 km/h (1 Bft) 97,46 %
25.01.2016 09:55 2,9 C 98 % 1031,4 hPa 0,0 l/m 0,2 km/h (0 Bft) W-NW 297 0 min 0,000 mm 0,0 UV-I 12 W/m 2,6 C 2,9 C 1,6 km/h (1 Bft) 97,50 %
25.01.2016 10:00 2,8 C 98 % 1031,3 hPa 0,2 l/m 0,1 km/h (0 Bft) W-NW 297 0 min 0,000 mm 0,0 UV-I 14 W/m 2,5 C 2,8 C 1,6 km/h (1 Bft) 97,58 %
25.01.2016 10:05 2,8 C 98 % 1031,1 hPa 0,0 l/m 2,6 km/h (1 Bft) W-NW 282 0 min 0,000 mm 0,0 UV-I 20 W/m 2,5 C 2,8 C 4,8 km/h (1 Bft) 100,00 %
25.01.2016 10:10 2,9 C 98 % 1031,1 hPa 0,0 l/m 3,7 km/h (1 Bft) W 279 0 min 0,000 mm 0,0 UV-I 25 W/m 2,6 C 2,9 C 6,4 km/h (2 Bft) 98,29 %
25.01.2016 10:15 3,2 C 98 % 1031,0 hPa 0,0 l/m 5,8 km/h (2 Bft) W 261 0 min 0,000 mm 0,0 UV-I 35 W/m 2,9 C 3,2 C 6,4 km/h (2 Bft) 100,00 %
25.01.2016 10:20 3,2 C 98 % 1031,1 hPa 0,0 l/m 6,5 km/h (2 Bft) W 264 0 min 0,000 mm 0,0 UV-I 34 W/m 2,9 C 3,1 C 12,9 km/h (3 Bft) 99,21 %
25.01.2016 10:25 3,3 C 98 % 1031,1 hPa 0,0 l/m 3,4 km/h (1 Bft) W 279 0 min 0,000 mm 0,0 UV-I 33 W/m 3,0 C 3,3 C 6,4 km/h (2 Bft) 98,25 %
25.01.2016 10:30 3,2 C 98 % 1031,1 hPa 0,0 l/m 2,4 km/h (1 Bft) W-NW 289 0 min 0,000 mm 0,0 UV-I 30 W/m 2,9 C 3,2 C 6,4 km/h (2 Bft) 100,00 %
25.01.2016 10:35 3,2 C 98 % 1031,2 hPa 0,0 l/m 1,1 km/h (1 Bft) W-NW 289 0 min 0,000 mm 0,0 UV-I 31 W/m 2,9 C 3,2 C 3,2 km/h (1 Bft) 99,11 %
25.01.2016 10:40 3,1 C 98 % 1031,2 hPa 0,0 l/m 1,4 km/h (1 Bft) W-NW 289 0 min 0,000 mm 0,0 UV-I 31 W/m 2,8 C 3,1 C 4,8 km/h (1 Bft) 99,15 %
25.01.2016 10:45 3,1 C 98 % 1031,2 hPa 0,0 l/m 2,9 km/h (1 Bft) W 276 0 min 0,000 mm 0,0 UV-I 32 W/m 2,8 C 3,1 C 4,8 km/h (1 Bft) 99,18 %
25.01.2016 10:50 2,8 C 98 % 1031,3 hPa 0,0 l/m 2,0 km/h (1 Bft) W 278 0 min 0,000 mm 0,0 UV-I 26 W/m 2,5 C 2,8 C 3,2 km/h (1 Bft) 99,19 %
25.01.2016 10:55 2,7 C 98 % 1031,3 hPa 0,0 l/m 2,3 km/h (1 Bft) W 272 0 min 0,000 mm 0,0 UV-I 23 W/m 2,4 C 2,7 C 4,8 km/h (1 Bft) 100,00 %
25.01.2016 11:00 2,9 C 98 % 1031,3 hPa 0,2 l/m 4,2 km/h (1 Bft) W-NW 284 0 min 0,000 mm 0,0 UV-I 27 W/m 2,6 C 2,9 C 9,7 km/h (2 Bft) 98,26 %
25.01.2016 11:05 3,1 C 98 % 1031,4 hPa 0,0 l/m 3,3 km/h (1 Bft) W-NW 289 0 min 0,000 mm 0,0 UV-I 31 W/m 2,8 C 3,1 C 6,4 km/h (2 Bft) 100,00 %
25.01.2016 11:10 2,9 C 98 % 1031,4 hPa 0,0 l/m 2,0 km/h (1 Bft) W-NW 289 0 min 0,000 mm 0,0 UV-I 31 W/m 2,6 C 2,9 C 3,2 km/h (1 Bft) 97,25 %
25.01.2016 11:15 2,8 C 98 % 1031,3 hPa 0,0 l/m 1,7 km/h (1 Bft) W-SW 256 0 min 0,000 mm 0,0 UV-I 34 W/m 2,5 C 2,8 C 4,8 km/h (1 Bft) 100,00 %
25.01.2016 11:20 2,9 C 98 % 1031,3 hPa 0,0 l/m 3,1 km/h (1 Bft) NW 313 0 min 0,000 mm 0,0 UV-I 40 W/m 2,6 C 2,9 C 9,7 km/h (2 Bft) 99,21 %
25.01.2016 11:25 2,9 C 98 % 1031,4 hPa 0,2 l/m 2,6 km/h (1 Bft) NW 304 0 min 0,000 mm 0,0 UV-I 34 W/m 2,6 C 2,9 C 6,4 km/h (2 Bft) 99,15 %
25.01.2016 11:30 2,8 C 98 % 1031,4 hPa 0,0 l/m 1,5 km/h (1 Bft) W-NW 291 0 min 0,000 mm 0,0 UV-I 35 W/m 2,5 C 2,8 C 4,8 km/h (1 Bft) 96,58 %
25.01.2016 11:35 2,8 C 98 % 1031,3 hPa 0,2 l/m 1,1 km/h (1 Bft) W-NW 293 0 min 0,000 mm 0,0 UV-I 33 W/m 2,5 C 2,8 C 4,8 km/h (1 Bft) 97,32 %
25.01.2016 11:40 2,9 C 98 % 1031,1 hPa 0,0 l/m 4,2 km/h (1 Bft) W 265 0 min 0,000 mm 0,0 UV-I 37 W/m 2,6 C 2,9 C 9,7 km/h (2 Bft) 96,69 %
25.01.2016 11:45 3,1 C 99 % 1031,0 hPa 0,2 l/m 5,2 km/h (1 Bft) W-SW 243 0 min 0,000 mm 0,0 UV-I 46 W/m 3,0 C 3,1 C 9,7 km/h (2 Bft) 96,49 %
25.01.2016 11:50 3,2 C 99 % 1030,9 hPa 0,2 l/m 5,5 km/h (1 Bft) W-SW 238 0 min 0,000 mm 0,0 UV-I 72 W/m 3,1 C 3,2 C 8,0 km/h (2 Bft) 95,65 %
25.01.2016 11:55 3,3 C 98 % 1030,8 hPa 0,0 l/m 6,0 km/h (2 Bft) SW 227 0 min 0,000 mm 0,0 UV-I 87 W/m 3,0 C 3,3 C 11,3 km/h (2 Bft) 95,97 %
25.01.2016 12:00 3,3 C 98 % 1030,9 hPa 0,2 l/m 6,2 km/h (2 Bft) SW 225 0 min 0,025 mm 0,0 UV-I 77 W/m 3,0 C 3,3 C 11,3 km/h (2 Bft) 97,37 %
25.01.2016 12:05 3,2 C 99 % 1030,8 hPa 0,0 l/m 4,3 km/h (1 Bft) W-SW 244 0 min 0,000 mm 0,0 UV-I 61 W/m 3,1 C 3,2 C 6,4 km/h (2 Bft) 96,43 %
25.01.2016 12:10 3,3 C 98 % 1030,9 hPa 0,2 l/m 3,9 km/h (1 Bft) W-SW 252 0 min 0,000 mm 0,0 UV-I 53 W/m 3,0 C 3,3 C 6,4 km/h (2 Bft) 100,00 %
25.01.2016 12:15 3,4 C 99 % 1030,8 hPa 0,0 l/m 5,5 km/h (1 Bft) W 266 0 min 0,000 mm 0,0 UV-I 48 W/m 3,3 C 3,4 C 9,7 km/h (2 Bft) 99,06 %
25.01.2016 12:20 3,6 C 98 % 1030,8 hPa 0,0 l/m 4,9 km/h (1 Bft) W-NW 284 0 min 0,000 mm 0,0 UV-I 51 W/m 3,3 C 3,6 C 9,7 km/h (2 Bft) 100,00 %
25.01.2016 12:25 3,7 C 99 % 1030,8 hPa 0,4 l/m 3,5 km/h (1 Bft) W 274 0 min 0,000 mm 0,0 UV-I 60 W/m 3,6 C 3,7 C 9,7 km/h (2 Bft) 96,83 %
25.01.2016 12:30 3,4 C 99 % 1030,8 hPa 0,0 l/m 2,2 km/h (1 Bft) W 270 0 min 0,000 mm 0,0 UV-I 59 W/m 3,3 C 3,4 C 4,8 km/h (1 Bft) 99,08 %
25.01.2016 12:35 3,6 C 99 % 1030,7 hPa 0,2 l/m 3,0 km/h (1 Bft) W-NW 290 0 min 0,000 mm 0,0 UV-I 45 W/m 3,5 C 3,6 C 4,8 km/h (1 Bft) 99,17 %
25.01.2016 12:40 3,5 C 99 % 1030,7 hPa 0,0 l/m 1,7 km/h (1 Bft) W-NW 290 0 min 0,000 mm 0,0 UV-I 42 W/m 3,4 C 3,5 C 4,8 km/h (1 Bft) 98,94 %
25.01.2016 12:45 3,5 C 99 % 1030,6 hPa 0,2 l/m 3,0 km/h (1 Bft) W 281 0 min 0,000 mm 0,0 UV-I 51 W/m 3,4 C 3,5 C 4,8 km/h (1 Bft) 100,00 %
25.01.2016 12:50 3,7 C 99 % 1030,5 hPa 0,0 l/m 3,4 km/h (1 Bft) W-NW 285 0 min 0,000 mm 0,0 UV-I 62 W/m 3,6 C 3,7 C 11,3 km/h (2 Bft) 100,00 %
25.01.2016 12:55 3,5 C 99 % 1030,5 hPa 0,2 l/m 2,0 km/h (1 Bft) W-NW 289 0 min 0,000 mm 0,0 UV-I 66 W/m 3,4 C 3,5 C 4,8 km/h (1 Bft) 99,12 %
25.01.2016 13:00 3,4 C 99 % 1030,4 hPa 0,2 l/m 2,0 km/h (1 Bft) NW 305 0 min 0,026 mm 0,0 UV-I 63 W/m 3,3 C 3,4 C 4,8 km/h (1 Bft) 99,17 %
25.01.2016 13:05 3,5 C 99 % 1030,3 hPa 0,0 l/m 1,7 km/h (1 Bft) NW 305 0 min 0,000 mm 0,0 UV-I 55 W/m 3,4 C 3,5 C 3,2 km/h (1 Bft) 100,00 %
25.01.2016 13:10 3,6 C 99 % 1030,2 hPa 0,0 l/m 3,5 km/h (1 Bft) W 273 0 min 0,000 mm 0,0 UV-I 75 W/m 3,5 C 3,6 C 6,4 km/h (2 Bft) 100,00 %
25.01.2016 13:15 3,8 C 99 % 1030,2 hPa 0,0 l/m 4,5 km/h (1 Bft) W-NW 284 0 min 0,000 mm 0,0 UV-I 86 W/m 3,7 C 3,8 C 11,3 km/h (2 Bft) 98,35 %
25.01.2016 13:20 4,3 C 99 % 1030,1 hPa 0,2 l/m 4,4 km/h (1 Bft) W 275 0 min 0,000 mm 0,0 UV-I 70 W/m 4,2 C 4,3 C 9,7 km/h (2 Bft) 100,00 %
25.01.2016 13:25 4,0 C 99 % 1030,1 hPa 0,0 l/m 2,9 km/h (1 Bft) W-NW 285 0 min 0,000 mm 0,0 UV-I 69 W/m 3,9 C 4,0 C 6,4 km/h (2 Bft) 100,00 %
25.01.2016 13:30 3,5 C 99 % 1030,1 hPa 0,0 l/m 1,9 km/h (1 Bft) W-NW 302 0 min 0,000 mm 0,0 UV-I 64 W/m 3,4 C 3,5 C 4,8 km/h (1 Bft) 99,17 %
25.01.2016 13:35 3,7 C 99 % 1030,0 hPa 0,2 l/m 1,0 km/h (0 Bft) W-NW 302 0 min 0,000 mm 0,0 UV-I 43 W/m 3,6 C 3,7 C 3,2 km/h (1 Bft) 100,00 %
25.01.2016 13:40 3,7 C 99 % 1029,9 hPa 0,0 l/m 1,3 km/h (1 Bft) W-NW 302 0 min 0,000 mm 0,0 UV-I 42 W/m 3,6 C 3,7 C 3,2 km/h (1 Bft) 97,46 %
25.01.2016 13:45 3,6 C 99 % 1029,8 hPa 0,0 l/m 1,5 km/h (1 Bft) W-NW 302 0 min 0,000 mm 0,0 UV-I 54 W/m 3,5 C 3,6 C 3,2 km/h (1 Bft) 95,61 %
25.01.2016 13:50 3,7 C 99 % 1029,7 hPa 0,0 l/m 2,1 km/h (1 Bft) W-NW 286 0 min 0,000 mm 0,0 UV-I 59 W/m 3,6 C 3,7 C 4,8 km/h (1 Bft) 97,46 %
25.01.2016 13:55 3,8 C 99 % 1029,7 hPa 0,0 l/m 1,8 km/h (1 Bft) W-NW 286 0 min 0,000 mm 0,0 UV-I 64 W/m 3,7 C 3,8 C 4,8 km/h (1 Bft) 96,77 %
25.01.2016 14:00 3,9 C 99 % 1029,7 hPa 0,0 l/m 2,8 km/h (1 Bft) W 279 0 min 0,025 mm 0,0 UV-I 70 W/m 3,8 C 3,9 C 4,8 km/h (1 Bft) 97,30 %
25.01.2016 14:05 4,0 C 99 % 1029,7 hPa 0,0 l/m 2,5 km/h (1 Bft) W-NW 290 0 min 0,000 mm 0,0 UV-I 62 W/m 3,9 C 4,0 C 6,4 km/h (2 Bft) 96,69 %
25.01.2016 14:10 4,0 C 99 % 1029,7 hPa 0,0 l/m 3,0 km/h (1 Bft) W-NW 294 0 min 0,000 mm 0,0 UV-I 56 W/m 3,9 C 4,0 C 6,4 km/h (2 Bft) 100,00 %
25.01.2016 14:20 3,8 C 99 % 1029,6 hPa 0,0 l/m 3,6 km/h (1 Bft) W-NW 303 0 min 0,000 mm 0,0 UV-I 60 W/m 3,7 C 3,8 C 9,7 km/h (2 Bft) 97,65 %
25.01.2016 14:25 3,8 C 99 % 1029,5 hPa 0,0 l/m 4,1 km/h (1 Bft) W 273 0 min 0,000 mm 0,0 UV-I 62 W/m 3,7 C 3,8 C 9,7 km/h (2 Bft) 99,10 %
25.01.2016 14:30 3,9 C 99 % 1029,4 hPa 0,0 l/m 3,7 km/h (1 Bft) W-NW 296 0 min 0,000 mm 0,0 UV-I 69 W/m 3,8 C 3,9 C 6,4 km/h (2 Bft) 99,15 %
25.01.2016 14:35 4,0 C 99 % 1029,4 hPa 0,0 l/m 2,9 km/h (1 Bft) W-NW 288 0 min 0,000 mm 0,0 UV-I 79 W/m 3,9 C 4,0 C 6,4 km/h (2 Bft) 99,19 %
25.01.2016 14:40 4,1 C 99 % 1029,4 hPa 0,0 l/m 3,6 km/h (1 Bft) W 277 0 min 0,000 mm 0,0 UV-I 74 W/m 4,0 C 4,1 C 6,4 km/h (2 Bft) 100,00 %
25.01.2016 14:45 4,0 C 99 % 1029,4 hPa 0,0 l/m 4,3 km/h (1 Bft) W-NW 291 0 min 0,000 mm 0,0 UV-I 52 W/m 3,9 C 4,0 C 9,7 km/h (2 Bft) 100,00 %
25.01.2016 14:50 4,1 C 99 % 1029,4 hPa 0,0 l/m 2,4 km/h (1 Bft) W-NW 294 0 min 0,000 mm 0,0 UV-I 52 W/m 4,0 C 4,1 C 4,8 km/h (1 Bft) 100,00 %
25.01.2016 14:55 3,9 C 99 % 1029,4 hPa 0,0 l/m 2,3 km/h (1 Bft) W-NW 284 0 min 0,000 mm 0,0 UV-I 86 W/m 3,8 C 3,9 C 4,8 km/h (1 Bft) 98,21 %
25.01.2016 15:00 3,8 C 99 % 1029,5 hPa 0,0 l/m 1,6 km/h (1 Bft) W-NW 292 0 min 0,026 mm 0,0 UV-I 85 W/m 3,7 C 3,8 C 4,8 km/h (1 Bft) 100,00 %
25.01.2016 15:05 3,7 C 99 % 1029,6 hPa 0,0 l/m 1,3 km/h (1 Bft) W-NW 292 0 min 0,000 mm 0,0 UV-I 65 W/m 3,6 C 3,7 C 3,2 km/h (1 Bft) 96,91 %
25.01.2016 15:10 3,7 C 99 % 1029,6 hPa 0,0 l/m 0,6 km/h (0 Bft) W-NW 292 0 min 0,000 mm 0,0 UV-I 35 W/m 3,6 C 3,7 C 1,6 km/h (1 Bft) 100,00 %
25.01.2016 15:15 3,7 C 99 % 1029,6 hPa 0,0 l/m 1,0 km/h (0 Bft) NW 304 0 min 0,000 mm 0,0 UV-I 51 W/m 3,6 C 3,7 C 3,2 km/h (1 Bft) 100,00 %
25.01.2016 15:20 3,7 C 99 % 1029,6 hPa 0,0 l/m 0,3 km/h (0 Bft) NW 304 0 min 0,000 mm 0,0 UV-I 70 W/m 3,6 C 3,7 C 1,6 km/h (1 Bft) 99,10 %
25.01.2016 15:25 3,7 C 99 % 1029,6 hPa 0,0 l/m 0,6 km/h (0 Bft) NW 304 0 min 0,000 mm 0,0 UV-I 74 W/m 3,6 C 3,7 C 3,2 km/h (1 Bft) 99,18 %
25.01.2016 15:30 3,7 C 99 % 1029,6 hPa 0,0 l/m 1,1 km/h (1 Bft) W-NW 298 0 min 0,000 mm 0,0 UV-I 71 W/m 3,6 C 3,7 C 4,8 km/h (1 Bft) 100,00 %
25.01.2016 15:35 3,7 C 99 % 1029,7 hPa 0,0 l/m 1,1 km/h (1 Bft) W-NW 294 0 min 0,000 mm 0,0 UV-I 86 W/m 3,6 C 3,7 C 4,8 km/h (1 Bft) 99,12 %
25.01.2016 15:40 3,7 C 99 % 1029,7 hPa 0,0 l/m 0,9 km/h (0 Bft) W-NW 295 0 min 0,000 mm 0,0 UV-I 81 W/m 3,6 C 3,7 C 3,2 km/h (1 Bft) 98,35 %
25.01.2016 15:45 3,7 C 99 % 1029,7 hPa 0,0 l/m 0,9 km/h (0 Bft) W-NW 295 0 min 0,000 mm 0,0 UV-I 49 W/m 3,6 C 3,7 C 1,6 km/h (1 Bft) 98,25 %
25.01.2016 15:50 3,6 C 99 % 1029,7 hPa 0,0 l/m 1,0 km/h (0 Bft) NW 311 0 min 0,000 mm 0,0 UV-I 29 W/m 3,5 C 3,6 C 3,2 km/h (1 Bft) 98,21 %
25.01.2016 15:55 3,6 C 99 % 1029,6 hPa 0,0 l/m 1,5 km/h (1 Bft) W-NW 301 0 min 0,000 mm 0,0 UV-I 26 W/m 3,5 C 3,6 C 4,8 km/h (1 Bft) 98,39 %
25.01.2016 16:00 3,7 C 99 % 1029,5 hPa 0,0 l/m 1,1 km/h (1 Bft) W 279 0 min 0,025 mm 0,0 UV-I 32 W/m 3,6 C 3,7 C 6,4 km/h (2 Bft) 97,44 %
25.01.2016 16:05 3,7 C 99 % 1029,5 hPa 0,0 l/m 1,3 km/h (1 Bft) W 280 0 min 0,000 mm 0,0 UV-I 23 W/m 3,6 C 3,7 C 3,2 km/h (1 Bft) 96,33 %
25.01.2016 16:10 3,7 C 99 % 1029,4 hPa 0,0 l/m 1,4 km/h (1 Bft) W-NW 286 0 min 0,000 mm 0,0 UV-I 18 W/m 3,6 C 3,7 C 4,8 km/h (1 Bft) 96,03 %
25.01.2016 16:15 3,7 C 99 % 1029,4 hPa 0,0 l/m 2,2 km/h (1 Bft) NW 304 0 min 0,000 mm 0,0 UV-I 17 W/m 3,6 C 3,7 C 9,7 km/h (2 Bft) 96,33 %
25.01.2016 16:20 3,6 C 99 % 1029,5 hPa 0,0 l/m 0,8 km/h (0 Bft) N-NW 328 0 min 0,000 mm 0,0 UV-I 18 W/m 3,5 C 3,6 C 4,8 km/h (1 Bft) 96,77 %
25.01.2016 16:25 3,4 C 99 % 1029,5 hPa 0,0 l/m 0,6 km/h (0 Bft) N-NW 328 0 min 0,000 mm 0,0 UV-I 13 W/m 3,3 C 3,4 C 1,6 km/h (1 Bft) 96,33 %
25.01.2016 16:30 3,3 C 99 % 1029,5 hPa 0,0 l/m 0,3 km/h (0 Bft) N-NW 328 0 min 0,000 mm 0,0 UV-I 10 W/m 3,2 C 3,3 C 1,6 km/h (1 Bft) 98,04 %
25.01.2016 16:35 3,3 C 99 % 1029,4 hPa 0,0 l/m 1,0 km/h (0 Bft) N-NW 328 0 min 0,000 mm 0,0 UV-I 8 W/m 3,2 C 3,3 C 3,2 km/h (1 Bft) 98,53 %
25.01.2016 16:40 3,3 C 99 % 1029,5 hPa 0,0 l/m 0,2 km/h (0 Bft) N-NW 328 0 min 0,000 mm 0,0 UV-I 6 W/m 3,2 C 3,3 C 1,6 km/h (1 Bft) 99,12 %
25.01.2016 16:45 3,3 C 99 % 1029,5 hPa 0,0 l/m 0,3 km/h (0 Bft) N-NW 328 0 min 0,000 mm 0,0 UV-I 4 W/m 3,2 C 3,3 C 1,6 km/h (1 Bft) 99,21 %
25.01.2016 16:50 3,4 C 99 % 1029,5 hPa 0,0 l/m 0,2 km/h (0 Bft) N-NW 328 0 min 0,000 mm 0,0 UV-I 0 W/m 3,3 C 3,4 C 1,6 km/h (1 Bft) 100,00 %
25.01.2016 16:55 3,4 C 99 % 1029,5 hPa 0,0 l/m 0,6 km/h (0 Bft) N-NW 328 0 min 0,000 mm 0,0 UV-I 0 W/m 3,3 C 3,4 C 1,6 km/h (1 Bft) 100,00 %
25.01.2016 17:00 3,3 C 99 % 1029,6 hPa 0,0 l/m 0,5 km/h (0 Bft) W-NW 299 0 min 0,000 mm 0,0 UV-I 0 W/m 3,2 C 3,3 C 3,2 km/h (1 Bft) 99,03 %
25.01.2016 17:05 3,4 C 99 % 1029,6 hPa 0,0 l/m 1,3 km/h (1 Bft) W-NW 299 0 min 0,000 mm 0,0 UV-I 0 W/m 3,3 C 3,4 C 3,2 km/h (1 Bft) 98,55 %
25.01.2016 17:10 3,6 C 99 % 1029,5 hPa 0,0 l/m 2,4 km/h (1 Bft) W-NW 286 0 min 0,000 mm 0,0 UV-I 0 W/m 3,5 C 3,6 C 6,4 km/h (2 Bft) 100,00 %
25.01.2016 17:15 3,6 C 99 % 1029,6 hPa 0,0 l/m 3,6 km/h (1 Bft) W-NW 283 0 min 0,000 mm 0,0 UV-I 0 W/m 3,5 C 3,6 C 6,4 km/h (2 Bft) 98,31 %
25.01.2016 17:20 3,6 C 99 % 1029,6 hPa 0,0 l/m 3,5 km/h (1 Bft) W 269 0 min 0,000 mm 0,0 UV-I 0 W/m 3,5 C 3,6 C 6,4 km/h (2 Bft) 99,12 %
25.01.2016 17:25 3,7 C 99 % 1029,6 hPa 0,0 l/m 4,2 km/h (1 Bft) W-SW 256 0 min 0,000 mm 0,0 UV-I 0 W/m 3,6 C 3,7 C 6,4 km/h (2 Bft) 99,13 %
25.01.2016 17:30 3,7 C 99 % 1029,6 hPa 0,0 l/m 3,5 km/h (1 Bft) W-NW 284 0 min 0,000 mm 0,0 UV-I 0 W/m 3,6 C 3,7 C 9,7 km/h (2 Bft) 99,15 %
25.01.2016 17:35 3,7 C 99 % 1029,6 hPa 0,0 l/m 2,8 km/h (1 Bft) W-NW 295 0 min 0,000 mm 0,0 UV-I 0 W/m 3,6 C 3,7 C 8,0 km/h (2 Bft) 99,10 %
25.01.2016 17:40 3,8 C 99 % 1029,7 hPa 0,0 l/m 2,2 km/h (1 Bft) W-NW 287 0 min 0,000 mm 0,0 UV-I 0 W/m 3,7 C 3,8 C 4,8 km/h (1 Bft) 99,15 %
25.01.2016 17:45 3,8 C 99 % 1029,7 hPa 0,0 l/m 0,5 km/h (0 Bft) W-NW 287 0 min 0,000 mm 0,0 UV-I 0 W/m 3,7 C 3,8 C 1,6 km/h (1 Bft) 100,00 %
25.01.2016 17:50 3,7 C 99 % 1029,9 hPa 0,0 l/m 2,0 km/h (1 Bft) NW 323 0 min 0,000 mm 0,0 UV-I 0 W/m 3,6 C 3,7 C 4,8 km/h (1 Bft) 100,00 %
25.01.2016 17:55 3,7 C 99 % 1029,9 hPa 0,0 l/m 0,6 km/h (0 Bft) NW 317 0 min 0,000 mm 0,0 UV-I 0 W/m 3,6 C 3,7 C 3,2 km/h (1 Bft) 98,26 %
25.01.2016 18:00 3,8 C 99 % 1029,8 hPa 0,0 l/m 0,5 km/h (0 Bft) NW 321 0 min 0,000 mm 0,0 UV-I 0 W/m 3,7 C 3,8 C 3,2 km/h (1 Bft) 98,17 %
25.01.2016 18:05 3,8 C 99 % 1029,8 hPa 0,0 l/m 1,4 km/h (1 Bft) NW 317 0 min 0,000 mm 0,0 UV-I 0 W/m 3,7 C 3,8 C 4,8 km/h (1 Bft) 100,00 %
25.01.2016 18:10 3,8 C 99 % 1029,8 hPa 0,0 l/m 1,3 km/h (1 Bft) NW 317 0 min 0,000 mm 0,0 UV-I 0 W/m 3,7 C 3,8 C 3,2 km/h (1 Bft) 97,50 %
25.01.2016 18:15 3,9 C 99 % 1029,8 hPa 0,0 l/m 1,4 km/h (1 Bft) NW 317 0 min 0,000 mm 0,0 UV-I 0 W/m 3,8 C 3,9 C 3,2 km/h (1 Bft) 96,67 %
25.01.2016 18:20 3,9 C 99 % 1029,9 hPa 0,0 l/m 0,3 km/h (0 Bft) NW 316 0 min 0,000 mm 0,0 UV-I 0 W/m 3,8 C 3,9 C 1,6 km/h (1 Bft) 94,59 %
25.01.2016 18:25 3,9 C 99 % 1029,9 hPa 0,0 l/m 0,7 km/h (0 Bft) NW 316 0 min 0,000 mm 0,0 UV-I 0 W/m 3,8 C 3,9 C 3,2 km/h (1 Bft) 96,61 %
25.01.2016 18:30 4,1 C 99 % 1030,0 hPa 0,0 l/m 0,8 km/h (0 Bft) NW 316 0 min 0,000 mm 0,0 UV-I 0 W/m 4,0 C 4,1 C 3,2 km/h (1 Bft) 96,83 %
25.01.2016 18:35 4,1 C 99 % 1030,1 hPa 0,0 l/m 1,2 km/h (1 Bft) NW 316 0 min 0,000 mm 0,0 UV-I 0 W/m 4,0 C 4,1 C 1,6 km/h (1 Bft) 96,33 %
25.01.2016 18:40 4,0 C 99 % 1030,1 hPa 0,0 l/m 1,1 km/h (1 Bft) NW 316 0 min 0,000 mm 0,0 UV-I 0 W/m 3,9 C 4,0 C 3,2 km/h (1 Bft) 97,32 %
25.01.2016 18:45 3,9 C 99 % 1030,2 hPa 0,0 l/m 0,7 km/h (0 Bft) NW 316 0 min 0,000 mm 0,0 UV-I 0 W/m 3,8 C 3,9 C 3,2 km/h (1 Bft) 99,21 %
25.01.2016 18:50 3,8 C 99 % 1030,2 hPa 0,0 l/m 1,8 km/h (1 Bft) N 5 0 min 0,000 mm 0,0 UV-I 0 W/m 3,7 C 3,8 C 4,8 km/h (1 Bft) 99,15 %
25.01.2016 18:55 3,6 C 99 % 1030,2 hPa 0,0 l/m 0,0 km/h (0 Bft) N 5 0 min 0,000 mm 0,0 UV-I 0 W/m 3,5 C 3,6 C 1,6 km/h (1 Bft) 100,00 %
25.01.2016 19:00 3,4 C 99 % 1030,1 hPa 0,0 l/m 0,9 km/h (0 Bft) SO 140 0 min 0,000 mm 0,0 UV-I 0 W/m 3,3 C 3,4 C 3,2 km/h (1 Bft) 98,31 %
25.01.2016 19:05 3,4 C 99 % 1030,1 hPa 0,0 l/m 1,8 km/h (1 Bft) SO 140 0 min 0,000 mm 0,0 UV-I 0 W/m 3,3 C 3,4 C 3,2 km/h (1 Bft) 100,00 %
25.01.2016 19:10 3,3 C 99 % 1030,1 hPa 0,0 l/m 2,4 km/h (1 Bft) SO 140 0 min 0,000 mm 0,0 UV-I 0 W/m 3,2 C 3,3 C 4,8 km/h (1 Bft) 98,37 %
25.01.2016 19:15 3,3 C 99 % 1030,1 hPa 0,0 l/m 1,6 km/h (1 Bft) SO 140 0 min 0,000 mm 0,0 UV-I 0 W/m 3,2 C 3,3 C 4,8 km/h (1 Bft) 100,00 %
25.01.2016 19:20 3,4 C 99 % 1030,1 hPa 0,0 l/m 3,7 km/h (1 Bft) S 178 0 min 0,000 mm 0,0 UV-I 0 W/m 3,3 C 3,4 C 6,4 km/h (2 Bft) 99,15 %
25.01.2016 19:25 3,4 C 99 % 1030,2 hPa 0,0 l/m 3,7 km/h (1 Bft) SW 224 0 min 0,000 mm 0,0 UV-I 0 W/m 3,3 C 3,4 C 6,4 km/h (2 Bft) 100,00 %
25.01.2016 19:30 3,6 C 99 % 1030,2 hPa 0,0 l/m 5,9 km/h (2 Bft) S-SW 202 0 min 0,000 mm 0,0 UV-I 0 W/m 3,5 C 3,6 C 11,3 km/h (2 Bft) 100,00 %
25.01.2016 19:35 3,4 C 99 % 1030,1 hPa 0,0 l/m 5,0 km/h (1 Bft) S 181 0 min 0,000 mm 0,0 UV-I 0 W/m 3,3 C 3,4 C 8,0 km/h (2 Bft) 100,00 %
25.01.2016 19:40 3,3 C 99 % 1030,1 hPa 0,0 l/m 3,1 km/h (1 Bft) S 175 0 min 0,000 mm 0,0 UV-I 0 W/m 3,2 C 3,3 C 6,4 km/h (2 Bft) 99,19 %
25.01.2016 19:45 3,6 C 99 % 1030,2 hPa 0,0 l/m 4,6 km/h (1 Bft) S 186 0 min 0,000 mm 0,0 UV-I 0 W/m 3,5 C 3,6 C 6,4 km/h (2 Bft) 99,13 %
25.01.2016 19:50 3,6 C 99 % 1030,2 hPa 0,0 l/m 4,4 km/h (1 Bft) S-SW 212 0 min 0,000 mm 0,0 UV-I 0 W/m 3,5 C 3,6 C 6,4 km/h (2 Bft) 100,00 %
25.01.2016 19:55 3,6 C 99 % 1030,3 hPa 0,0 l/m 5,9 km/h (2 Bft) W 265 0 min 0,000 mm 0,0 UV-I 0 W/m 3,5 C 3,6 C 9,7 km/h (2 Bft) 99,06 %
25.01.2016 20:00 3,7 C 99 % 1030,2 hPa 0,0 l/m 6,6 km/h (2 Bft) W-SW 252 0 min 0,000 mm 0,0 UV-I 0 W/m 3,6 C 3,5 C 11,3 km/h (2 Bft) 100,00 %
25.01.2016 20:05 3,9 C 99 % 1030,1 hPa 0,0 l/m 7,3 km/h (2 Bft) W 259 0 min 0,000 mm 0,0 UV-I 0 W/m 3,8 C 3,1 C 11,3 km/h (2 Bft) 97,52 %
25.01.2016 20:10 4,2 C 99 % 1030,0 hPa 0,0 l/m 6,0 km/h (2 Bft) W 271 0 min 0,000 mm 0,0 UV-I 0 W/m 4,1 C 4,2 C 11,3 km/h (2 Bft) 99,17 %
25.01.2016 20:15 4,2 C 99 % 1030,1 hPa 0,0 l/m 4,6 km/h (1 Bft) W-SW 251 0 min 0,000 mm 0,0 UV-I 0 W/m 4,1 C 4,2 C 11,3 km/h (2 Bft) 100,00 %
25.01.2016 20:20 4,2 C 99 % 1030,0 hPa 0,0 l/m 5,1 km/h (1 Bft) W-SW 258 0 min 0,000 mm 0,0 UV-I 0 W/m 4,1 C 4,2 C 11,3 km/h (2 Bft) 96,46 %
25.01.2016 20:25 4,2 C 99 % 1030,0 hPa 0,0 l/m 4,2 km/h (1 Bft) W-SW 252 0 min 0,000 mm 0,0 UV-I 0 W/m 4,1 C 4,2 C 9,7 km/h (2 Bft) 97,56 %
25.01.2016 20:30 4,1 C 99 % 1030,1 hPa 0,0 l/m 0,5 km/h (0 Bft) W-SW 252 0 min 0,000 mm 0,0 UV-I 0 W/m 4,0 C 4,1 C 3,2 km/h (1 Bft) 96,69 %
25.01.2016 20:35 3,9 C 99 % 1030,1 hPa 0,0 l/m 0,2 km/h (0 Bft) W-SW 252 0 min 0,000 mm 0,0 UV-I 0 W/m 3,8 C 3,9 C 1,6 km/h (1 Bft) 95,76 %
25.01.2016 20:40 3,8 C 99 % 1030,1 hPa 0,0 l/m 0,6 km/h (0 Bft) W-SW 252 0 min 0,000 mm 0,0 UV-I 0 W/m 3,7 C 3,8 C 1,6 km/h (1 Bft) 96,49 %
25.01.2016 20:45 3,9 C 99 % 1030,1 hPa 0,0 l/m 0,7 km/h (0 Bft) W-SW 252 0 min 0,000 mm 0,0 UV-I 0 W/m 3,8 C 3,9 C 3,2 km/h (1 Bft) 95,54 %
25.01.2016 20:50 4,0 C 99 % 1030,1 hPa 0,0 l/m 0,7 km/h (0 Bft) W-SW 252 0 min 0,000 mm 0,0 UV-I 0 W/m 3,9 C 4,0 C 3,2 km/h (1 Bft) 98,39 %
25.01.2016 20:55 3,9 C 99 % 1030,1 hPa 0,0 l/m 1,8 km/h (1 Bft) W-SW 252 0 min 0,000 mm 0,0 UV-I 0 W/m 3,8 C 3,9 C 3,2 km/h (1 Bft) 97,44 %
25.01.2016 21:00 3,9 C 99 % 1030,0 hPa 0,0 l/m 2,6 km/h (1 Bft) W 273 0 min 0,000 mm 0,0 UV-I 0 W/m 3,8 C 3,9 C 4,8 km/h (1 Bft) 100,00 %
25.01.2016 21:05 4,0 C 99 % 1030,0 hPa 0,0 l/m 2,0 km/h (1 Bft) W-NW 293 0 min 0,000 mm 0,0 UV-I 0 W/m 3,9 C 4,0 C 4,8 km/h (1 Bft) 98,21 %
25.01.2016 21:10 4,1 C 99 % 1029,9 hPa 0,0 l/m 2,4 km/h (1 Bft) W-NW 293 0 min 0,000 mm 0,0 UV-I 0 W/m 4,0 C 4,1 C 4,8 km/h (1 Bft) 98,29 %
25.01.2016 21:15 3,9 C 99 % 1029,9 hPa 0,0 l/m 2,3 km/h (1 Bft) W-NW 293 0 min 0,000 mm 0,0 UV-I 0 W/m 3,8 C 3,9 C 3,2 km/h (1 Bft) 99,15 %
25.01.2016 21:20 3,7 C 99 % 1029,9 hPa 0,0 l/m 1,8 km/h (1 Bft) W-NW 293 0 min 0,000 mm 0,0 UV-I 0 W/m 3,6 C 3,7 C 3,2 km/h (1 Bft) 100,00 %
25.01.2016 21:25 3,6 C 99 % 1029,9 hPa 0,0 l/m 1,7 km/h (1 Bft) W-NW 293 0 min 0,000 mm 0,0 UV-I 0 W/m 3,5 C 3,6 C 3,2 km/h (1 Bft) 99,15 %
25.01.2016 21:30 3,4 C 99 % 1029,8 hPa 0,0 l/m 0,9 km/h (0 Bft) W-NW 293 0 min 0,000 mm 0,0 UV-I 0 W/m 3,3 C 3,4 C 3,2 km/h (1 Bft) 98,35 %
25.01.2016 21:35 3,3 C 99 % 1029,8 hPa 0,0 l/m 0,4 km/h (0 Bft) W-NW 293 0 min 0,000 mm 0,0 UV-I 0 W/m 3,2 C 3,3 C 3,2 km/h (1 Bft) 99,15 %
25.01.2016 21:40 3,3 C 99 % 1029,9 hPa 0,0 l/m 0,9 km/h (0 Bft) W-NW 293 0 min 0,000 mm 0,0 UV-I 0 W/m 3,2 C 3,3 C 3,2 km/h (1 Bft) 98,26 %
25.01.2016 21:45 3,4 C 99 % 1029,9 hPa 0,0 l/m 1,0 km/h (0 Bft) W-NW 293 0 min 0,000 mm 0,0 UV-I 0 W/m 3,3 C 3,4 C 3,2 km/h (1 Bft) 100,00 %
25.01.2016 21:50 3,4 C 99 % 1029,9 hPa 0,0 l/m 0,7 km/h (0 Bft) W-NW 293 0 min 0,000 mm 0,0 UV-I 0 W/m 3,3 C 3,4 C 1,6 km/h (1 Bft) 100,00 %
25.01.2016 21:55 3,5 C 99 % 1029,8 hPa 0,0 l/m 0,4 km/h (0 Bft) W-NW 293 0 min 0,000 mm 0,0 UV-I 0 W/m 3,4 C 3,5 C 1,6 km/h (1 Bft) 100,00 %
25.01.2016 22:00 3,5 C 99 % 1029,8 hPa 0,0 l/m 0,3 km/h (0 Bft) W-NW 293 0 min 0,000 mm 0,0 UV-I 0 W/m 3,4 C 3,5 C 1,6 km/h (1 Bft) 98,17 %
25.01.2016 22:05 3,6 C 99 % 1029,8 hPa 0,0 l/m 0,0 km/h (0 Bft) W-NW 293 0 min 0,000 mm 0,0 UV-I 0 W/m 3,5 C 3,6 C 0,0 km/h (0 Bft) 97,52 %
25.01.2016 22:10 3,4 C 99 % 1029,9 hPa 0,0 l/m 0,0 km/h (0 Bft) W-NW 293 0 min 0,000 mm 0,0 UV-I 0 W/m 3,3 C 3,4 C 0,0 km/h (0 Bft) 99,19 %
25.01.2016 22:15 3,3 C 99 % 1030,0 hPa 0,0 l/m 0,0 km/h (0 Bft) W-NW 293 0 min 0,000 mm 0,0 UV-I 0 W/m 3,2 C 3,3 C 0,0 km/h (0 Bft) 100,00 %
25.01.2016 22:20 3,3 C 99 % 1029,9 hPa 0,0 l/m 0,1 km/h (0 Bft) W-NW 293 0 min 0,000 mm 0,0 UV-I 0 W/m 3,2 C 3,3 C 1,6 km/h (1 Bft) 96,61 %
25.01.2016 22:25 3,4 C 99 % 1029,9 hPa 0,0 l/m 0,2 km/h (0 Bft) W-NW 293 0 min 0,000 mm 0,0 UV-I 0 W/m 3,3 C 3,4 C 1,6 km/h (1 Bft) 98,21 %
25.01.2016 22:30 3,3 C 99 % 1029,7 hPa 0,0 l/m 0,2 km/h (0 Bft) W-NW 293 0 min 0,000 mm 0,0 UV-I 0 W/m 3,2 C 3,3 C 1,6 km/h (1 Bft) 96,58 %
25.01.2016 22:35 3,3 C 99 % 1029,7 hPa 0,0 l/m 0,0 km/h (0 Bft) W-NW 293 0 min 0,000 mm 0,0 UV-I 0 W/m 3,2 C 3,3 C 1,6 km/h (1 Bft) 94,35 %
25.01.2016 22:40 3,2 C 99 % 1029,8 hPa 0,0 l/m 0,0 km/h (0 Bft) W-NW 293 0 min 0,000 mm 0,0 UV-I 0 W/m 3,1 C 3,2 C 0,0 km/h (0 Bft) 96,58 %
25.01.2016 22:45 3,2 C 99 % 1029,7 hPa 0,0 l/m 0,0 km/h (0 Bft) W-NW 293 0 min 0,000 mm 0,0 UV-I 0 W/m 3,1 C 3,2 C 0,0 km/h (0 Bft) 96,33 %
25.01.2016 22:50 3,1 C 99 % 1029,6 hPa 0,0 l/m 0,8 km/h (0 Bft) W-NW 293 0 min 0,000 mm 0,0 UV-I 0 W/m 3,0 C 3,1 C 1,6 km/h (1 Bft) 96,06 %
25.01.2016 22:55 3,1 C 99 % 1029,7 hPa 0,0 l/m 0,9 km/h (0 Bft) W-NW 293 0 min 0,000 mm 0,0 UV-I 0 W/m 3,0 C 3,1 C 1,6 km/h (1 Bft) 96,91 %
25.01.2016 23:00 3,2 C 99 % 1029,7 hPa 0,0 l/m 0,0 km/h (0 Bft) W-NW 293 0 min 0,000 mm 0,0 UV-I 0 W/m 3,1 C 3,2 C 1,6 km/h (1 Bft) 94,81 %
25.01.2016 23:05 3,0 C 99 % 1029,7 hPa 0,0 l/m 0,0 km/h (0 Bft) W-NW 293 0 min 0,000 mm 0,0 UV-I 0 W/m 2,9 C 3,0 C 0,0 km/h (0 Bft) 99,08 %
25.01.2016 23:10 3,2 C 99 % 1029,7 hPa 0,0 l/m 0,0 km/h (0 Bft) W-NW 293 0 min 0,000 mm 0,0 UV-I 0 W/m 3,1 C 3,2 C 0,0 km/h (0 Bft) 99,22 %
25.01.2016 23:15 3,1 C 99 % 1029,6 hPa 0,0 l/m 0,0 km/h (0 Bft) W-NW 293 0 min 0,000 mm 0,0 UV-I 0 W/m 3,0 C 3,1 C 0,0 km/h (0 Bft) 99,11 %
25.01.2016 23:20 2,9 C 99 % 1029,7 hPa 0,0 l/m 0,0 km/h (0 Bft) W-NW 293 0 min 0,000 mm 0,0 UV-I 0 W/m 2,8 C 2,9 C 0,0 km/h (0 Bft) 98,29 %
25.01.2016 23:25 3,0 C 99 % 1029,6 hPa 0,0 l/m 0,3 km/h (0 Bft) W-NW 293 0 min 0,000 mm 0,0 UV-I 0 W/m 2,9 C 3,0 C 1,6 km/h (1 Bft) 99,11 %
25.01.2016 23:30 3,2 C 99 % 1029,6 hPa 0,0 l/m 1,7 km/h (1 Bft) W-NW 293 0 min 0,000 mm 0,0 UV-I 0 W/m 3,1 C 3,2 C 3,2 km/h (1 Bft) 100,00 %
25.01.2016 23:35 3,1 C 99 % 1029,6 hPa 0,0 l/m 1,2 km/h (1 Bft) W-NW 293 0 min 0,000 mm 0,0 UV-I 0 W/m 3,0 C 3,1 C 3,2 km/h (1 Bft) 98,37 %
25.01.2016 23:40 3,1 C 99 % 1029,6 hPa 0,0 l/m 0,5 km/h (0 Bft) W-NW 293 0 min 0,000 mm 0,0 UV-I 0 W/m 3,0 C 3,1 C 1,6 km/h (1 Bft) 99,11 %
25.01.2016 23:45 2,8 C 99 % 1029,6 hPa 0,0 l/m 0,1 km/h (0 Bft) W-NW 293 0 min 0,000 mm 0,0 UV-I 0 W/m 2,7 C 2,8 C 1,6 km/h (1 Bft) 100,00 %
25.01.2016 23:50 2,7 C 99 % 1029,6 hPa 0,0 l/m 0,1 km/h (0 Bft) W-NW 293 0 min 0,000 mm 0,0 UV-I 0 W/m 2,6 C 2,7 C 1,6 km/h (1 Bft) 99,22 %
25.01.2016 23:55 2,8 C 99 % 1029,6 hPa 0,0 l/m 0,0 km/h (0 Bft) W-NW 293 0 min 0,000 mm 0,0 UV-I 0 W/m 2,7 C 2,8 C 0,0 km/h (0 Bft) 99,08 %
_ Min-Zeit 03:55 00:00 14:30 - 00:00 - - - - - - 00:15 07:35 00:00 22:35
Minimum _ 1,1 C 94 % 1029,4 hPa - 0,0 km/h (0 Bft) - - - - - - 0,5 C -0,7 C 0,0 km/h (0 Bft) 94,35 %
_ Max-Zeit 13:20 11:45 00:20 12:25 08:25 - - 00:00 13:00 00:00 11:55 13:20 13:20 07:30 00:05
Maximum _ 4,3 C 99 % 1032,5 hPa 0,4 l/m 10,2 km/h
W (2 Bft)
- - 0 min 0,026 mm 0,0 UV-I 87 W/m 4,2 C 4,3 C 16,1 km/h
W-SW (3 Bft)
100,00 %
Durchschnitt _ 2,8 C 98 % 1030,5 hPa #8,2 l/m 2,6 km/h (1 Bft) W-NW - #0 min. #0,127 mm 0,0 UV-I 41 W/m 2,5 C 2,7 C 5,3 km/h (1 Bft) 98,48 %